ATLAS CENTAUR 2 R/B 1 00694U 63047A 24289.96449447 .00002790 00000-0 33543-3 0 9990 2 00694 30.3579 158.0413 0561219 277.8803 75.8483 14.08756107 59591 THOR AGENA D R/B 1 00733U 64002A 24289.68060240 .00000954 00000-0 36080-3 0 9994 2 00733 99.0907 265.0077 0032321 304.6958 55.1181 14.33463070165219 SL-3 R/B 1 00877U 64053B 24289.82035216 .00001278 00000-0 28060-3 0 9999 2 00877 65.0794 25.2259 0055149 152.3216 208.0839 14.60646687192307 SL-8 R/B 1 02802U 67045B 24289.87468925 .00001407 00000-0 40102-3 0 9990 2 02802 74.0120 219.7800 0065276 348.7890 11.1808 14.44954570 15367 SL-8 R/B 1 03230U 68040B 24289.94882368 .00007597 00000-0 64214-3 0 9997 2 03230 74.0315 271.4684 0027784 232.5632 127.3026 14.97928613 13536 OAO 2 1 03597U 68110A 24289.95961274 .00000867 00000-0 24146-3 0 9999 2 03597 34.9927 230.2072 0004825 69.6688 290.4521 14.46779657945252 ISIS 1 1 03669U 69009A 24289.67097297 .00000891 00000-0 62605-3 0 9990 2 03669 88.4492 210.9433 1709899 38.6821 332.4997 11.30022318290913 SERT 2 1 04327U 70009A 24289.82026500 .00000151 00000-0 26286-3 0 9994 2 04327 99.2037 251.6002 0005550 36.3289 0.2479 13.58650728710656 SL-3 R/B 1 05118U 71028B 24289.92982594 .00020830 00000-0 63515-3 0 9992 2 05118 81.2459 306.9882 0030215 271.8803 87.8975 15.33362946909916 ASTEX 1 1 05560U 71089A 24289.89470482 .00001426 00000-0 36985-3 0 9995 2 05560 92.7167 346.8945 0016190 14.0852 346.0802 14.49790875788411 SL-8 R/B 1 5730U 71119B 24289.83246524 .00017453 00000-0 99979-3 0 9999 2 5730 73.8932 40.5959 0599010 111.2918 255.3251 14.25205586582486 COSMOS 482 DESCENT CRAFT 1 06073U 72023E 24289.91285192 .00156604 93429-5 20313-3 0 9998 2 06073 51.9848 168.1394 0568299 91.9646 274.6474 14.96681640719522 OAO 3 (COPERNICUS) 1 06153U 72065A 24289.82644161 .00001172 00000-0 24900-3 0 9991 2 06153 35.0066 320.7933 0007058 307.7962 218.6116 14.59237702771659 ATLAS CENTAUR R/B 1 06155U 72065B 24289.70532808 .00003375 00000-0 48856-3 0 9997 2 06155 35.0028 49.8667 0034998 43.4995 316.8457 14.75309005765831 SL-8 R/B 1 08459U 75112B 24289.84047879 .00000907 00000-0 30995-3 0 9999 2 08459 74.0606 236.4977 0014440 95.7505 264.5295 14.37694211558585 SL-3 R/B 1 10114U 77057B 24289.87197059 .00015940 00000-0 52592-3 0 9999 2 10114 97.5251 75.4845 0009109 316.9214 43.1313 15.31471518589931 SEASAT 1 1 10967U 78064A 24289.85152634 .00001023 00000-0 32975-3 0 9992 2 10967 108.0034 136.4901 0001760 247.7867 112.3092 14.45302424432826 SL-14 R/B 1 11267U 79011B 24289.89528073 .00001974 00000-0 19780-3 0 9991 2 11267 82.5262 219.8566 0015320 325.4758 34.5464 14.90819167452795 SL-8 R/B 1 11574U 79089B 24289.80332737 .00000786 00000-0 24823-3 0 9992 2 11574 74.0684 314.5119 0017016 258.7372 101.1872 14.41780505362604 SL-14 R/B 1 11672U 80005B 24289.84169799 .00001797 00000-0 18411-3 0 9990 2 11672 82.5133 70.4731 0017377 64.7963 295.5055 14.89832991400541 SL-8 R/B 1 12139U 81003B 24289.66723191 .00030166 00000-0 10313-2 0 9994 2 12139 82.9410 33.9701 0346102 123.8823 239.5837 14.88227698238238 SL-3 R/B 1 12465U 81046B 24289.95207235 .00016265 00000-0 58252-3 0 9990 2 12465 81.2396 175.4755 0025538 345.0868 14.9611 15.28326012360214 METEOR PRIRODA 1 12585U 81065A 24289.83336420 .00035231 00000-0 71342-3 0 9999 2 12585 97.5329 323.1370 0008530 11.5355 348.6088 15.46306421364511 SL-3 R/B 1 12904U 81103B 24289.87904558 .00009223 00000-0 49976-3 0 9994 2 12904 81.1581 88.4391 0018673 212.0796 147.9297 15.14340911895883 SL-3 R/B 1 13068U 82013B 24289.84935371 .00010130 00000-0 52610-3 0 9999 2 13068 81.1792 35.7603 0025644 93.4316 266.9846 15.15703723326948 SL-3 R/B 1 13154U 82039B 24289.90692041 .00008715 00000-0 59780-3 0 9995 2 13154 81.1790 80.7233 0034410 195.4854 164.5320 15.05415281304801 SL-3 R/B 1 13403U 82079B 24289.88460381 .00013142 00000-0 66092-3 0 9997 2 13403 81.1478 71.7263 0029231 82.6506 277.8044 15.16751423300192 SL-3 R/B 1 13819U 83010B 24289.87670978 .00018762 00000-0 62914-3 0 9990 2 13819 81.1066 259.8296 0022714 18.4096 341.7957 15.30529165279552 COSMOS 1455 1 14032U 83037A 24289.90710316 .00040018 00000-0 82646-3 0 9995 2 14032 82.5015 303.5537 0006909 262.1626 97.8838 15.45641851268344 SL-3 R/B 1 14208U 83075B 24289.88761611 .00014137 00000-0 56697-3 0 9993 2 14208 97.5820 270.2173 0027151 233.8164 126.0562 15.24771960252398 COSMOS 1500 1 14372U 83099A 24289.92575164 .00052868 00000-0 95891-3 0 9994 2 14372 82.5068 196.4452 0011869 72.4403 287.8144 15.49306749244859 COSMOS 1536 1 14699U 84013A 24289.88970472 .00010014 00000-0 53543-3 0 9994 2 14699 82.5473 251.2173 0015192 258.9183 101.0341 15.14854655195194 SL-14 R/B 1 14820U 84027B 24289.28697645 .00001552 00000-0 17839-3 0 9992 2 14820 82.5454 3.3963 0017342 219.7298 140.2649 14.85110169171858 SL-8 R/B 1 15483U 85006B 24289.93023948 .00000861 00000-0 29709-3 0 9998 2 15483 74.0432 118.8032 0018377 162.3143 341.8298 14.37254493 80771 COSMOS 1626 1 15494U 85009A 24289.78049471 .00163285 00000-0 11243-2 0 9998 2 15494 82.4575 62.1527 0003417 299.5136 60.5786 15.74128405177643 SL-12 R/B(2) 1 15772U 85042D 24289.50964372 .00000465 00000-0 23183-3 0 9997 2 15772 71.1065 85.4018 0036038 203.0124 214.7092 14.21728088 41878 SL-14 R/B 1 15945U 85069B 24289.49184835 .00001272 00000-0 14390-3 0 9991 2 15945 82.5261 144.4202 0020738 82.1963 278.1606 14.85540946 97064 SL-16 R/B 1 16182U 85097B 24289.85255228 -.00000063 00000-0 -76819-5 0 9996 2 16182 71.0004 133.8201 0009318 304.3338 66.5314 14.16473652 15038 SL-14 R/B 1 16496U 86006B 24289.84409569 .00001544 00000-0 17517-3 0 9994 2 16496 82.5281 19.1392 0017752 224.3390 275.3682 14.85642885 73479 COSMOS 1743 1 16719U 86034A 24289.81755055 .00022763 00000-0 73116-3 0 9997 2 16719 82.5437 236.6961 0007024 348.9331 11.1754 15.32136414101586 SL-14 R/B 1 16792U 86046B 24289.67209138 .00001427 00000-0 16483-3 0 9999 2 16792 82.4852 201.6962 0025121 111.0060 249.3846 14.84716296 50708 SL-14 R/B 1 16882U 86055B 24289.87831007 .00001494 00000-0 17307-3 0 9997 2 16882 82.5196 245.5478 0018162 213.6467 175.8952 14.84749783 43694 EGS (AJISAI) 1 16908U 86061A 24289.93376392 -.00000101 00000-0 -26089-4 0 9995 2 16908 50.0083 220.8256 0011424 69.3150 36.2571 12.44508226404526 COSMOS 1812 1 17295U 87003A 24289.64781597 .00029715 00000-0 80587-3 0 9999 2 17295 82.5090 14.2910 0002449 161.8084 198.3248 15.37477814 64994 SL-14 R/B 1 17567U 87024B 24289.89002565 .00001431 00000-0 16346-3 0 9999 2 17567 82.5309 211.5171 0019490 143.5126 216.7422 14.85254397 12430 COSMOS 1833 1 17589U 87027A 24289.45634432 -.00000041 00000-0 40562-5 0 9998 2 17589 70.9214 318.4646 0026303 257.3184 102.4996 14.13007484938239 SL-16 R/B 1 17590U 87027B 24289.70076118 .00000406 00000-0 22540-3 0 9997 2 17590 71.0014 271.0616 0005527 204.7757 155.3102 14.17030390943136 SL-14 R/B 1 17912U 87038B 24289.76051745 .00001557 00000-0 18137-3 0 9997 2 17912 82.5020 56.8406 0020714 51.5886 308.7185 14.84506627 3553 COSMOS 1844 1 17973U 87041A 24289.59182446 .00000237 00000-0 14843-3 0 9996 2 17973 70.9021 29.9738 0028801 66.0729 294.3405 14.14388480931455 SL-14 R/B 1 18153U 87055B 24289.82674181 .00001368 00000-0 15818-3 0 9999 2 18153 82.4961 109.3531 0019532 258.1499 101.7527 14.84752843994269 COSMOS 1867 1 18187U 87060A 24289.71125601 .00000136 00000-0 88847-4 0 9993 2 18187 65.0098 294.7627 0020545 264.6868 95.1872 14.31360889946934 SL-14 R/B 1 18749U 88001B 24289.78883026 .00001183 00000-0 13656-3 0 9990 2 18749 82.5119 314.7647 0019696 121.5318 238.7825 14.84668617966334 COSMOS 1933 1 18958U 88020A 24289.58564936 .00009130 00000-0 53257-3 0 9998 2 18958 82.5171 33.3666 0004674 151.1779 208.9711 15.11830829973023 SL-3 R/B 1 19046U 88032B 24289.92056967 .00008767 00000-0 50606-3 0 9998 2 19046 97.4622 268.6318 0029691 198.9547 161.0582 15.12192748974841 SL-16 R/B 1 19120U 88039B 24289.66808948 .00000066 00000-0 53941-4 0 9993 2 19120 71.0146 66.8809 0020513 37.4917 322.7634 14.19469337886009 COSMOS 1953 1 19210U 88050A 24289.48069126 .00012288 00000-0 59961-3 0 9999 2 19210 82.5103 307.7529 0016044 113.0511 247.2417 15.18063593960096 SL-8 R/B 1 19257U 88053B 24289.84907384 .00000785 00000-0 26547-3 0 9993 2 19257 74.0482 331.8910 0021567 279.3282 254.2127 14.38397954903277 COSMOS 1975 1 19573U 88093A 24289.43661251 .00014356 00000-0 71577-3 0 9995 2 19573 82.5209 265.7621 0015666 152.9215 207.2839 15.17321544941739 SL-14 R/B 1 19574U 88093B 24289.61153880 .00001261 00000-0 14537-3 0 9994 2 19574 82.5323 160.5714 0019486 287.1210 95.0081 14.84797595925327 SL-16 R/B 1 19650U 88102B 24289.90214436 .00000114 00000-0 81682-4 0 9999 2 19650 70.9981 144.0504 0012241 62.3193 297.9170 14.16027448854727 INTERCOSMOS 24 1 20261U 89080A 24289.87309476 .00001106 00000-0 32095-3 0 9995 2 20261 82.6030 75.8196 1193664 34.9479 332.4354 12.58400468602644 SL-14 R/B 1 20262U 89080C 24289.88679210 .00000697 00000-0 21295-3 0 9997 2 20262 82.5923 140.4999 1231634 269.7315 76.2942 12.49934800596440 DELTA 1 R/B 1 20323U 89089B 24289.85385038 .00001481 00000-0 38114-3 0 9993 2 20323 97.1171 205.8572 0068423 292.6644 66.7329 14.49889286821837 DELTA 2 R/B(1) 1 20453U 90008B 24289.79952726 .00039127 00000-0 12874-2 0 9999 2 20453 35.6166 172.0114 0185208 354.9354 4.9498 15.15605318847790 COSMOS 2058 1 20465U 90010A 24289.96558255 .00007693 00000-0 53257-3 0 9997 2 20465 82.4897 186.9224 0010542 252.0988 107.9089 15.05498815865385 SL-14 R/B 1 20466U 90010B 24289.74367313 .00001495 00000-0 18164-3 0 9999 2 20466 82.5061 26.0518 0020135 176.0619 184.0758 14.82761888852893 SL-14 R/B 1 20511U 90018B 24289.88181983 .00001128 00000-0 14118-3 0 9998 2 20511 82.5230 339.3731 0015680 334.0807 25.9619 14.81362734847083 HST 1 20580U 90037B 24289.96080940 .00012648 00000-0 55716-3 0 9993 2 20580 28.4685 254.6337 0002594 274.1177 85.9119 15.20267027695419 SL-16 R/B 1 20625U 90046B 24289.42556142 -.00000033 00000-0 76343-5 0 9993 2 20625 70.9974 289.4626 0014549 350.2561 9.8277 14.14884781776217 COSMOS 2084 1 20663U 90055A 24289.93337276 .00006026 00000-0 44508-3 0 9999 2 20663 62.7898 268.5598 0096858 131.3445 229.6037 15.00577375859673 SL-6 R/B(2) 1 20666U 90055D 24289.70613559 .00005038 00000-0 40398-3 0 9993 2 20666 62.7847 183.6064 0067456 156.0053 204.4214 14.99610928861597 SL-8 R/B 1 20775U 90078B 24289.85244429 .00023277 00000-0 88553-3 0 9991 2 20775 82.9157 342.1458 0446225 262.1599 92.8749 14.66277196733976 SL-8 R/B 1 21088U 91006B 24289.91584560 .00000190 00000-0 17539-3 0 9996 2 21088 82.9461 189.2531 0023346 26.1250 25.3322 13.77377148693894 OKEAN 3 1 21397U 91039A 24289.79501051 .00006779 00000-0 54442-3 0 9998 2 21397 82.5150 109.2071 0014415 263.3754 96.5829 14.99831483788462 COSMOS 2151 1 21422U 91042A 24289.74451091 .00005613 00000-0 48566-3 0 9990 2 21422 82.5005 214.4008 0012692 351.1146 8.9849 14.96945510786815 SL-14 R/B 1 21423U 91042B 24289.56234223 .00001128 00000-0 14198-3 0 9998 2 21423 82.4945 338.3374 0018626 115.0638 245.2512 14.81079327777547 ERS 1 1 21574U 91050A 24289.94839620 .00001031 00000-0 34878-3 0 9998 2 21574 98.7874 284.4402 0031062 274.3438 85.4199 14.38802098742418 ARIANE 40 R/B 1 21610U 91050F 24289.88868016 .00001198 00000-0 37674-3 0 9994 2 21610 98.2762 348.2764 0003489 159.3256 200.8076 14.42178677745494 INTERCOSMOS 25 1 21819U 91086A 24289.87457788 .00002488 00000-0 48614-3 0 9992 2 21819 82.6006 257.6942 1498633 134.1204 239.3452 12.09406529434983 SL-14 R/B 1 21820U 91086B 24289.85822660 .00001319 00000-0 25521-3 0 9991 2 21820 82.5637 337.6899 1566904 76.8034 300.2550 11.95566000426291 SL-8 R/B 1 21876U 92008B 24289.95138944 .00000233 00000-0 22378-3 0 9994 2 21876 82.9226 286.8220 0036060 117.2815 261.6495 13.75866380639326 SL-8 R/B 1 21938U 92020B 24289.90952181 .00000164 00000-0 15439-3 0 9992 2 21938 82.9329 172.3695 0027861 281.8649 89.5474 13.75448039631059 SL-16 R/B 1 22220U 92076B 24289.72490188 .00000109 00000-0 78267-4 0 9990 2 22220 71.0002 182.5079 0011885 162.1617 212.6469 14.16719427649606 SL-16 R/B 1 22285U 92093B 24289.90524553 -.00000050 00000-0 -10188-5 0 9990 2 22285 71.0242 354.3464 0005013 333.6943 26.3925 14.15315873641024 COSMOS 2228 1 22286U 92094A 24289.92022601 .00005135 00000-0 48353-3 0 9991 2 22286 82.5230 4.1620 0018711 212.9746 147.0310 14.93542835699862 SL-16 R/B 1 22566U 93016B 24289.18946956 .00000170 00000-0 11209-3 0 9997 2 22566 71.0071 207.2930 0009735 8.1399 351.9880 14.15175516629946 COSMOS 2242 1 22626U 93024A 24289.58271791 .00005649 00000-0 53827-3 0 9993 2 22626 82.5236 33.4007 0016666 216.3131 143.6960 14.93115041704172 SL-16 R/B 1 22803U 93059B 24289.92999937 -.00000054 00000-0 -26744-5 0 9992 2 22803 70.9928 6.0091 0019620 267.8044 92.0833 14.17088777607319 ARIANE 40 R/B 1 22830U 93061H 24289.93043444 .00000821 00000-0 31996-3 0 9992 2 22830 98.5592 356.0750 0010585 357.6780 2.4353 14.32336661621119 COSMOS 2278 1 23087U 94023A 24289.93274942 -.00000021 00000-0 13542-4 0 9996 2 23087 71.0524 161.4697 0006396 84.9719 275.2133 14.14176544572731 SL-16 R/B 1 23088U 94023B 24289.65621873 -.00000111 00000-0 -32948-4 0 9997 2 23088 71.0000 61.9198 0004510 320.2858 39.7934 14.14895787573940 SL-16 R/B 1 23343U 94074B 24289.90709419 .00001487 00000-0 21056-3 0 9990 2 23343 97.7743 328.8412 0008157 81.8047 91.5388 14.78456954612108 SL-16 R/B 1 23405U 94077B 24289.90696627 .00000455 00000-0 25773-3 0 9992 2 23405 70.9848 344.8898 0004370 243.5371 116.5304 14.15443591544094 ARIANE 40+ R/B 1 23561U 95021B 24289.92673262 .00001053 00000-0 35452-3 0 9997 2 23561 98.5153 355.6018 0006120 220.8124 312.7225 14.39126057545909 SL-16 R/B 1 23705U 95058B 24289.95988147 -.00000128 00000-0 -41211-4 0 9996 2 23705 71.0209 170.3471 0012596 187.6980 172.3951 14.15385679495727 SL-16 R/B 1 24298U 96051B 24289.12143021 -.00000078 00000-0 -15619-4 0 9998 2 24298 70.7905 175.3746 0015045 175.3884 184.7377 14.12456395449553 ORBVIEW 2 (SEASTAR) 1 24883U 97037A 24289.87043839 .00001103 00000-0 40501-3 0 9996 2 24883 98.7937 71.7603 0003055 113.8656 246.2849 14.34822176435349 SL-16 R/B 1 25400U 98043G 24289.54303482 .00000314 00000-0 15064-3 0 9996 2 25400 98.7555 230.3730 0010897 58.3014 301.9227 14.25837741366287 SL-16 R/B 1 25407U 98045B 24289.93644534 .00000434 00000-0 24361-3 0 9997 2 25407 71.0105 173.4833 0005391 79.8026 280.3705 14.16057900354935 ISS (ZARYA) 1 25544U 98067A 24289.85235117 .00024221 00000-0 43198-3 0 9996 2 25544 51.6376 77.7306 0009120 72.7234 287.4752 15.49902575477265 CZ-4B R/B 1 25732U 99025C 24289.87571853 .00000336 00000-0 18377-3 0 9994 2 25732 98.7383 333.2172 0037349 11.3159 161.9975 14.18058849315900 OKEAN O 1 25860U 99039A 24289.86968155 .00001971 00000-0 27408-3 0 9996 2 25860 98.0216 341.9836 0001399 114.2771 245.8586 14.78978658358993 SL-16 R/B 1 25861U 99039B 24289.88651322 .00001843 00000-0 24696-3 0 9998 2 25861 98.0746 336.6941 0016429 107.7585 252.5421 14.80554154361395 TERRA 1 25994U 99068A 24289.93949995 .00001521 00000-0 32554-3 0 9994 2 25994 98.0347 349.8190 0002302 20.0674 153.5509 14.60105231320660 ENVISAT 1 27386U 02009A 24289.89479234 .00000497 00000-0 17583-3 0 9995 2 27386 98.2988 246.8807 0001370 88.1906 291.6586 14.38715676185863 IDEFIX/ARIANE 42P 1 27422U 02021B 24289.54916601 .00001076 00000-0 43049-3 0 9996 2 27422 98.5354 224.8762 0010627 248.4994 111.5056 14.30388669171073 AQUA 1 27424U 02022A 24289.88800814 .00003057 00000-0 64584-3 0 9992 2 27424 98.3434 239.8359 0002453 81.5927 11.8688 14.60080335194283 CZ-4B R/B 1 27432U 02024C 24289.87109056 .00000230 00000-0 14219-3 0 9992 2 27432 98.9623 332.7029 0050707 30.2954 142.7659 14.14387736157163 ADEOS 2 1 27597U 02056A 24289.58413032 .00000996 00000-0 41453-3 0 9998 2 27597 98.7044 235.8561 0002203 67.7190 292.4225 14.28618529137420 H-2A R/B 1 27601U 02056E 24289.69900046 .00000993 00000-0 36715-3 0 9994 2 27601 98.2467 260.8958 0069613 241.6757 291.8858 14.33101418141046 CZ-4B R/B 1 28059U 03049C 24289.89501945 .00001633 00000-0 39211-3 0 9998 2 28059 98.6277 255.7836 0048772 349.3448 10.6710 14.54131833112488 CZ-2C R/B 1 28222U 04012C 24289.62790250 .00025276 00000-0 82356-3 0 9998 2 28222 97.7986 308.3116 0030421 351.8373 8.2368 15.31364191125498 SL-16 R/B 1 28353U 04021B 24289.81289361 -.00000086 00000-0 -19843-4 0 9996 2 28353 71.0003 222.4125 0002637 96.0572 264.0851 14.14470142 50738 CZ-2C R/B 1 28480U 04046B 24289.73653667 .00000610 00000-0 24362-3 0 9991 2 28480 98.1725 225.9390 0139244 222.4961 136.5376 14.26570983 35784 ARIANE 5 R/B 1 28499U 04049H 24289.84441156 .00003447 00000-0 40136-3 0 9992 2 28499 98.2017 70.7826 0086756 202.0120 157.7358 14.83284572 70153 CZ-2D R/B 1 28738U 05024B 24289.93448824 .00025179 00000-0 83534-3 0 9996 2 28738 97.3683 287.1674 0010753 78.8552 281.3898 15.31178713 61106 ASTRO E2 1 28773U 05025A 24289.58775996 .00123401 00000-0 12666-2 0 9994 2 28773 31.3846 33.3726 0004877 105.0708 255.0492 15.63433646 65723 ALOS 1 28931U 06002A 24289.80621837 .00003794 00000-0 68700-3 0 9998 2 28931 98.0503 240.4446 0002630 94.0528 266.0977 14.66892544998656 H-2A R/B 1 28932U 06002B 24289.71286752 .00016137 00000-0 11046-2 0 9997 2 28932 98.2003 28.3675 0066582 163.2934 197.0505 15.04355513 17438 RESURS DK-1 1 29228U 06021A 24289.75752097 .00005191 00000-0 33813-3 0 9996 2 29228 69.9327 112.2553 0005880 216.7955 143.2805 15.08530620 10505 GENESIS 1 1 29252U 06029A 24289.77949360 .00043519 00000-0 82570-3 0 9994 2 29252 64.5106 116.7038 0033218 305.6524 54.1521 15.47451205 9193 CZ-4B R/B 1 29507U 06046C 24289.94179858 .00008638 00000-0 53013-3 0 9995 2 29507 97.6311 325.3702 0037499 222.8314 136.9993 15.09767010982924 CZ-2C R/B 1 31114U 07010B 24289.90087845 .00000416 00000-0 21149-3 0 9995 2 31114 98.3508 59.0391 0058781 338.1096 21.7571 14.19925291907362 SKYMED 1 1 31598U 07023A 24289.70973373 .00001813 00000-0 23420-3 0 9999 2 31598 97.8889 111.1170 0001484 82.5522 277.5860 14.82167764938977 GENESIS 2 1 31789U 07028A 24289.91121050 .00039371 00000-0 82885-3 0 9996 2 31789 64.4867 162.7627 0011306 246.1109 113.8842 15.45005352956074 COSMOS 2428 1 31792U 07029A 24289.49938593 .00000475 00000-0 28158-3 0 9998 2 31792 70.9361 194.2525 0009681 246.5801 113.4303 14.12757041892037 SL-16 R/B 1 31793U 07029B 24289.92286980 .00000226 00000-0 14233-3 0 9996 2 31793 70.9738 163.8547 0001854 276.4935 94.4742 14.14682995893275 KORONAS-FOTON 1 33504U 09003A 24289.46172743 .00018380 00000-0 63993-3 0 9999 2 33504 82.4328 80.8252 0014020 174.3783 185.7617 15.29465354867515 H-2A R/B 1 38341U 12025E 24289.54353090 .00005414 00000-0 55399-3 0 9991 2 38341 98.4187 208.7285 0049045 175.2368 184.9324 14.90094810672107 CUSAT 2/FALCON 9 1 39271U 13055G 24289.90258881 .00122485 29577-5 88693-3 0 9996 2 39271 80.9182 291.2604 0215883 253.4214 104.3225 15.48188077583882 ALOS 2 1 39766U 14029A 24289.90246298 .00005065 00000-0 68458-3 0 9992 2 39766 97.9233 24.8134 0001413 104.0776 256.0593 14.79472094561494 SL-27 R/B 1 40354U 14084B 24286.28339632 .16055351 16334-5 13866-3 0 9996 2 40354 74.6839 308.2656 0009245 278.5058 211.6869 16.51684655553160 ASTRO H 1 41337U 16012A 24289.68481058 .00006707 00000-0 45128-3 0 9996 2 41337 31.0022 37.2736 0010166 256.3003 103.6501 15.05291501475189